Regional Weather Roundup
Issued by NWS Little Rock, AR

Home | Current Version | Previous Version | Graphics & Text | Print | Product List | Glossary On
Versions: 1 2 3 4 5 6 7 8 9 10 11 12 13 14 15 16 17 18 19 20 21 22 23 24 25 26 27 28 29 30 31
000
ASUS44 KLZK 221405
RWRLZK

WEATHER ROUNDUP FOR ARKANSAS
NATIONAL WEATHER SERVICE LITTLE ROCK AR
900 AM CDT SUN APR 22 2018

NOTE: "FAIR" INDICATES FEW OR NO CLOUDS BELOW 12,000 FEET WITH NO
SIGNIFICANT WEATHER AND/OR OBSTRUCTIONS TO VISIBILITY.

ARZ001-003-010-029-221500-
NORTHWEST ARKANSAS

CITY           SKY/WX    TMP DP  RH WIND       PRES   REMARKS
FAYETTEVILLE   FOG       51  51 100 W7        29.96S VSB 1/2
FORT SMITH     CLOUDY    52  51  97 W13       29.98R
HARRISON       LGT RAIN  52  52 100 CALM      29.96R FOG
BENTONVILLE    LGT RAIN  51  50  96 NW5       29.98S FOG
SILOAM SPGS    LGT RAIN  49  49 100 W7        29.98R FOG
HIGHFILL       LGT RAIN  52  52 100 W5        29.96F FOG
SPRINGDALE     CLOUDY    52  52 100 CALM      29.97S FOG
$$

ARZ004-005-016-221500-
NORTH CENTRAL ARKANSAS

CITY           SKY/WX    TMP DP  RH WIND       PRES   REMARKS
BATESVILLE     LGT RAIN  57  56  96 E14       29.95F
FLIPPIN        HVY RAIN  52  51  97 NE7       29.98S FOG
MTN HOME       HVY RAIN  52  52 100 VRB3      29.98R VSB 3/4
$$

ARZ040-041-221500-
WEST CENTRAL ARKANSAS

CITY           SKY/WX    TMP DP  RH WIND       PRES   REMARKS
MENA           CLOUDY    55  54  94 W9        29.97S
MOUNT IDA      CLOUDY    57  56  96 VRB3      29.92S
$$

ARZ009-017-025-026-028-221500-
NORTHEAST ARKANSAS

CITY           SKY/WX    TMP DP  RH WIND       PRES   REMARKS
CORNING        FAIR      54  54 100 NE20G26   30.00F FOG
JONESBORO      RAIN      57  57 100 E23G31    29.95F FOG
NEWPORT        CLOUDY    58  56  93 E10       29.96R
WALNUT RIDGE   LGT RAIN  56  54  93 E18       29.96F
BLYTHEVILLE    RAIN      56  53  90 E15G22    30.02F FOG
$$

ARZ022-023-033-042-044-221500-
CENTRAL ARKANSAS

CITY           SKY/WX    TMP DP  RH WIND       PRES   REMARKS
LITTLE ROCK    CLOUDY    60  60 100 CALM      29.92F
N LITTLE ROCK    N/A     58  58  99 CALM      29.89F
JACKSONVILLE   CLOUDY    59  59 100 CALM      29.91F
CONWAY         CLOUDY    57  57 100 NW8       29.92S FOG
SEARCY         LGT RAIN  60  60 100 E7        29.94R
HOT SPRINGS    LGT RAIN  58  58 100 N6        29.93S FOG
RUSSELLVILLE   LGT RAIN  56  56 100 W5        29.93S
CLINTON        CLOUDY    59  57  94 E8        29.93S
$$

ARZ036-221500-
EAST ARKANSAS

CITY           SKY/WX    TMP DP  RH WIND       PRES   REMARKS
WEST MEMPHIS   RAIN      58  58 100 E12       29.94F FOG
$$

ARZ050-053-066-070-073-221500-
SOUTHWEST ARKANSAS

CITY           SKY/WX    TMP DP  RH WIND       PRES   REMARKS
ARKADELPHIA    CLOUDY    60  58  92 W7        29.94S
CAMDEN         CLOUDY    61  57  88 W5        29.93S FOG
TEXARKANA      CLOUDY    56  55  97 NW15      29.96S
EL DORADO      CLOUDY    60  60 100 W3        29.95R
DE QUEEN       CLOUDY    56  54  93 NW8       29.96S
$$

ARZ056-057-069-221500-
SOUTHEAST ARKANSAS

CITY           SKY/WX    TMP DP  RH WIND       PRES   REMARKS
PINE BLUFF     CLOUDY    61  59  93 CALM      29.93S
STUTTGART      CLOUDY    62  60  93 W3        29.93F
MONTICELLO     CLOUDY    61  59  93 W3        29.93R

$$






USA.gov is the U.S. government's official web portal to all federal, state and local government web resources and services.